Location: Central Falls
(41.8900°N, 71.3929°W)
Time: 03:12:51
(UTC+00:00)

Vanguard 2 - Pass Details

Date: 11 December 2023
Orbit: 554 x 2918 km, 32.9° (Epoch: 01 March)

Event Time Altitude Azimuth Distance (km) Brightness Sun altitude
Rises 05:18:37 0° 277° (W) 6,653 - -69.3°
Reaches altitude 10° 05:23:48 10° 271° (W) 5,444 - -68.9°
Maximum altitude 05:37:03 36° 213° (SSW) 2,973 - -67.5°
Drops below altitude 10° 05:46:10 10° 151° (SSE) 3,733 - -66.4°
Sets 05:49:01 0° 142° (SE) 4,412 - -66.0°
